When you browse on this site, cookies collect data to enhance your experience and personalize the content and advertising you see.
Visit our Privacy Policy to learn more. By continuing to use the site, you agree to this use of cookies and data.
  • In Hungary
  • List of Countries
  • For 7 days
  • Water Temperature
  • Satellite Maps
  • Weather Map
  • News
  • Weather Widgets
  • user-avatar
    Login

    Hourly Weather Novobaltachevo

    Today, 19 November, Monday

    Time Temperature Precipitation Wind Pressure Humidity
    00:00 -4°C° 0.1 mm 3 mps 755 mmHg 81%
    01:00 -3°C° 0.1 mm 2 mps 755 mmHg 83%
    02:00 -3°C° 0.1 mm 2 mps 755 mmHg 85%
    03:00 -3°C° 0.1 mm 2 mps 755 mmHg 86%
    04:00 -3°C° 0 mm 2 mps 755 mmHg 86%
    05:00 -3°C° 0 mm 2 mps 755 mmHg 87%
    06:00 -3°C° 0 mm 2 mps 755 mmHg 88%
    07:00 -3°C° 0 mm 2 mps 755 mmHg 89%
    08:00 -2°C° 0.1 mm 2 mps 756 mmHg 89%
    09:00 -2°C° 0.1 mm 2 mps 756 mmHg 89%
    10:00 -2°C° 0 mm 2 mps 755 mmHg 89%
    11:00 -2°C° 0.1 mm 2 mps 756 mmHg 89%
    12:00 -2°C° 0.1 mm 2 mps 756 mmHg 89%
    13:00 -1°C° 0.1 mm 2 mps 756 mmHg 89%
    14:00 -2°C° 0.1 mm 2 mps 756 mmHg 91%
    15:00 -2°C° 0.1 mm 2 mps 756 mmHg 93%
    16:00 -2°C° 0 mm 2 mps 756 mmHg 95%
    17:00 0°C° 0.1 mm 1 mps 756 mmHg 96%
    18:00 0°C° 0.1 mm 1 mps 756 mmHg 96%
    19:00 0°C° 0.1 mm 1 mps 756 mmHg 97%
    20:00 0°C° 0.1 mm 1 mps 755 mmHg 97%
    21:00 0°C° 0.1 mm 1 mps 755 mmHg 97%
    22:00 0°C° 0.1 mm 1 mps 755 mmHg 97%
    23:00 0°C° 0.1 mm 1 mps 755 mmHg 97%

    Tomorrow, 20 November, Tuesday

    Time Temperature Precipitation Wind Pressure Humidity
    00:00 0°C° 0.1 mm 1 mps 755 mmHg 97%
    01:00 0°C° 0.1 mm 1 mps 755 mmHg 96%
    02:00 -1°C° 0.2 mm 1 mps 755 mmHg 96%
    03:00 -1°C° 0.2 mm 1 mps 755 mmHg 96%
    04:00 -1°C° 0.2 mm 1 mps 755 mmHg 96%
    05:00 -1°C° 0.1 mm 1 mps 755 mmHg 96%
    06:00 -1°C° 0.1 mm 1 mps 754 mmHg 96%
    07:00 -1°C° 0.1 mm 1 mps 754 mmHg 96%
    08:00 -1°C° 0.1 mm 1 mps 754 mmHg 95%
    09:00 -1°C° 0.1 mm 1 mps 754 mmHg 94%
    10:00 -1°C° 0.1 mm 1 mps 754 mmHg 93%
    11:00 0°C° 0 mm 1 mps 754 mmHg 92%
    12:00 0°C° 0 mm 1 mps 754 mmHg 91%
    13:00 0°C° 0 mm 1 mps 753 mmHg 90%
    14:00 0°C° 0 mm 1 mps 753 mmHg 91%
    15:00 0°C° 0 mm 1 mps 753 mmHg 93%
    16:00 0°C° 0 mm 1 mps 753 mmHg 95%
    17:00 0°C° 0 mm 1 mps 752 mmHg 95%
    18:00 0°C° 0 mm 1 mps 752 mmHg 95%
    19:00 -2°C° 0 mm 2 mps 752 mmHg 96%
    20:00 -3°C° 0 mm 2 mps 752 mmHg 96%
    21:00 -3°C° 0 mm 2 mps 751 mmHg 96%
    22:00 -3°C° 0 mm 2 mps 751 mmHg 96%
    23:00 -4°C° 0.1 mm 3 mps 750 mmHg 94%

    Day after tomorrow, 21 November, Wednesday

    Time Temperature Precipitation Wind Pressure Humidity
    00:00 -4°C° 0.1 mm 3 mps 750 mmHg 93%
    01:00 -4°C° 0.1 mm 4 mps 749 mmHg 91%
    02:00 -4°C° 0.1 mm 4 mps 748 mmHg 89%
    03:00 -4°C° 0.1 mm 4 mps 748 mmHg 87%
    04:00 -5°C° 0.1 mm 5 mps 747 mmHg 85%
    05:00 -6°C° 0.1 mm 5 mps 746 mmHg 85%
    06:00 -6°C° 0.1 mm 5 mps 746 mmHg 84%
    07:00 -6°C° 0.1 mm 5 mps 745 mmHg 83%
    08:00 -6°C° 0.1 mm 6 mps 744 mmHg 84%
    09:00 -6°C° 0.1 mm 6 mps 743 mmHg 85%
    10:00 -8°C° 0.1 mm 6 mps 743 mmHg 85%
    11:00 -6°C° 0.4 mm 6 mps 742 mmHg 87%
    12:00 -6°C° 0.4 mm 6 mps 741 mmHg 88%
    13:00 -6°C° 0.4 mm 6 mps 740 mmHg 90%
    14:00 -6°C° 0.4 mm 6 mps 739 mmHg 90%
    15:00 -6°C° 0.4 mm 5 mps 739 mmHg 90%
    16:00 -6°C° 0.4 mm 5 mps 738 mmHg 91%
    17:00 -6°C° 0.3 mm 5 mps 738 mmHg 92%
    18:00 -5°C° 0.3 mm 4 mps 737 mmHg 93%
    19:00 -5°C° 0.3 mm 4 mps 737 mmHg 94%
    20:00 -5°C° 0.3 mm 4 mps 737 mmHg 92%
    21:00 -6°C° 0.3 mm 5 mps 737 mmHg 90%
    22:00 -6°C° 0.3 mm 5 mps 737 mmHg 88%
    23:00 -8°C° 0.1 mm 6 mps 737 mmHg 87%

    22 November, Thursday

    Time Temperature Precipitation Wind Pressure Humidity
    00:00 -9°C° 0.1 mm 6 mps 737 mmHg 86%
    01:00 -9°C° 0.1 mm 7 mps 737 mmHg 84%
    02:00 -10°C° 0.1 mm 6 mps 737 mmHg 82%
    03:00 -11°C° 0.1 mm 6 mps 738 mmHg 80%
    04:00 -11°C° 0.1 mm 5 mps 738 mmHg 78%
    05:00 -12°C° 0 mm 5 mps 738 mmHg 82%
    06:00 -11°C° 0 mm 4 mps 739 mmHg 85%
    07:00 -12°C° 0 mm 4 mps 739 mmHg 89%
    08:00 -11°C° 0 mm 4 mps 739 mmHg 89%
    09:00 -11°C° 0 mm 4 mps 739 mmHg 88%
    10:00 -11°C° 0 mm 5 mps 739 mmHg 87%
    11:00 -11°C° 0.1 mm 5 mps 739 mmHg 85%
    12:00 -11°C° 0.1 mm 5 mps 739 mmHg 84%
    13:00 -10°C° 0.1 mm 4 mps 738 mmHg 82%
    14:00 -10°C° 0 mm 4 mps 738 mmHg 85%
    15:00 -9°C° 0 mm 3 mps 738 mmHg 87%
    16:00 -9°C° 0 mm 2 mps 738 mmHg 90%
    17:00 -9°C° 0.2 mm 2 mps 737 mmHg 91%
    18:00 -9°C° 0.2 mm 3 mps 737 mmHg 92%
    19:00 -9°C° 0.2 mm 3 mps 736 mmHg 94%
    20:00 -9°C° 0.4 mm 3 mps 736 mmHg 94%
    21:00 -10°C° 0.4 mm 4 mps 735 mmHg 94%
    22:00 -10°C° 0.4 mm 4 mps 735 mmHg 94%
    23:00 -10°C° 0.8 mm 4 mps 734 mmHg 93%

    23 November, Friday

    Time Temperature Precipitation Wind Pressure Humidity
    00:00 -10°C° 0.8 mm 5 mps 734 mmHg 93%
    01:00 -10°C° 0.8 mm 5 mps 734 mmHg 92%
    02:00 -11°C° 0.5 mm 6 mps 734 mmHg 89%
    03:00 -12°C° 0.5 mm 6 mps 735 mmHg 87%
    04:00 -14°C° 0.5 mm 7 mps 735 mmHg 84%
    05:00 -15°C° 0 mm 6 mps 736 mmHg 83%
    06:00 -15°C° 0 mm 6 mps 737 mmHg 81%
    07:00 -15°C° 0 mm 5 mps 738 mmHg 80%
    08:00 -17°C° 0 mm 5 mps 739 mmHg 81%
    09:00 -17°C° 0 mm 5 mps 741 mmHg 82%
    10:00 -17°C° 0 mm 4 mps 742 mmHg 83%
    11:00 -17°C° 0 mm 4 mps 742 mmHg 83%
    12:00 -16°C° 0 mm 4 mps 743 mmHg 84%
    13:00 -16°C° 0 mm 4 mps 744 mmHg 84%
    14:00 -16°C° 0 mm 4 mps 745 mmHg 86%
    15:00 -16°C° 0 mm 3 mps 745 mmHg 89%
    16:00 -17°C° 0 mm 3 mps 746 mmHg 91%
    17:00 -17°C° 0 mm 3 mps 746 mmHg 92%
    18:00 -18°C° 0 mm 3 mps 747 mmHg 93%
    19:00 -17°C° 0 mm 2 mps 747 mmHg 94%
    20:00 -17°C° 0 mm 2 mps 747 mmHg 94%
    21:00 -17°C° 0 mm 2 mps 748 mmHg 95%
    22:00 -17°C° 0 mm 2 mps 748 mmHg 95%
    23:00 -17°C° 0 mm 2 mps 748 mmHg 96%

    24 November, Saturday

    Time Temperature Precipitation Wind Pressure Humidity
    00:00 -17°C° 0 mm 2 mps 748 mmHg 96%
    01:00 -17°C° 0 mm 2 mps 748 mmHg 96%
    02:00 -18°C° 0 mm 3 mps 748 mmHg 96%
    03:00 -18°C° 0 mm 3 mps 749 mmHg 97%
    04:00 -17°C° 0 mm 3 mps 749 mmHg 97%
    05:00 -17°C° 0 mm 3 mps 749 mmHg 97%
    06:00 -17°C° 0 mm 3 mps 748 mmHg 97%
    07:00 -16°C° 0 mm 3 mps 748 mmHg 97%
    08:00 -16°C° 0.1 mm 4 mps 748 mmHg 95%
    09:00 -15°C° 0.1 mm 5 mps 747 mmHg 93%
    10:00 -14°C° 0.1 mm 6 mps 747 mmHg 91%
    11:00 -14°C° 0.1 mm 6 mps 746 mmHg 90%
    12:00 -13°C° 0.1 mm 7 mps 746 mmHg 89%
    13:00 -12°C° 0.1 mm 7 mps 745 mmHg 88%
    14:00 -12°C° 0.1 mm 8 mps 745 mmHg 88%
    15:00 -12°C° 0.1 mm 8 mps 744 mmHg 88%
    16:00 -12°C° 0.1 mm 8 mps 744 mmHg 87%
    17:00 -11°C° 0.2 mm 8 mps 743 mmHg 87%
    18:00 -11°C° 0.2 mm 9 mps 742 mmHg 87%
    19:00 -10°C° 0.2 mm 9 mps 742 mmHg 86%
    20:00 -10°C° 0.2 mm 9 mps 742 mmHg 87%
    21:00 -10°C° 0.2 mm 9 mps 741 mmHg 87%
    22:00 -9°C° 0.2 mm 9 mps 741 mmHg 88%
    23:00 -9°C° 0.2 mm 9 mps 741 mmHg 87%
    Show more